Regional Weather Roundup
Issued by NWS Burlington, VT

Home | Current Version | Previous Version | Text Only | Print | Product List | Glossary On
Versions: 1 2 3 4 5 6 7 8 9 10 11 12 13 14 15 16 17 18 19 20 21 22 23 24 25 26 27 28 29 30 31 32 33 34 35 36 37 38 39 40 41 42 43 44 45 46 47 48 49 50
000
ASUS41 KBTV 271230
RWRBTV
VERMONT REGIONAL WEATHER ROUNDUP
NATIONAL WEATHER SERVICE BURLINGTON VT
800 AM EDT FRI MAY 27 2016

NOTE: "FAIR" INDICATES FEW OR NO CLOUDS BELOW 12,000 FEET WITH NO
SIGNIFICANT WEATHER AND/OR OBSTRUCTIONS TO VISIBILITY.

* THESE REPORTS ARE NOT UNDER NWS QUALITY CONTROL AND/OR DO NOT
  REPORT WEATHER SUCH AS PRECIPITATION AND FOG.

VTZ001>019-271300-
_____VERMONT_____


CITY           SKY/WX    TMP DP  RH WIND       PRES   REMARKS
BURLINGTON     CLOUDY    71  58  63 SW9       29.99R
MONTPELIER     FAIR      65  56  72 S8        30.10S
6HR MIN TEMP:  60; 6HR MAX TEMP:  68; 6HR PCP: TRACE;

MORRISVILLE    FAIR      65  59  81 SE5       30.04F
6HR MIN TEMP:  60; 6HR MAX TEMP:  65; 6HR PCP:  0.13;

ST. JOHNSBURY*   N/A     65  57  75 MISG      30.05S
6HR MIN TEMP:  61; 6HR MAX TEMP:  65; 6HR PCP:  0.02;

LYNDONVILLE*   FAIR      64  56  77 SE6       30.09F
6HR MIN TEMP:  59; 6HR MAX TEMP:  65;

RUTLAND*       FAIR      70  60  70 SE8       30.05R
6HR MIN TEMP:  68; 6HR MAX TEMP:  71;

SPRINGFIELD    PTSUNNY   64  55  72 NE3       30.10R
6HR MIN TEMP:  62; 6HR MAX TEMP:  65; 6HR PCP: TRACE;

HIGHGATE*      FAIR      73  60  62 SW7       29.98R
6HR MIN TEMP:  60; 6HR MAX TEMP:  71;

NEWPORT*       FAIR      67  58  74 S8        30.05R
6HR MIN TEMP:  60; 6HR MAX TEMP:  66;

BENNINGTON     FAIR      69  62  78 CALM      30.06R
6HR MIN TEMP:  63; 6HR MAX TEMP:  70; 6HR PCP:  0.01;

GALLUP MILLS*    N/A     64 N/A N/A MISG        N/A
UNION VILLAGE*   N/A     64 N/A N/A MISG        N/A
MT. MANSFIELD*   N/A     63 N/A N/A W21         N/A

_____LAKE CHAMPLAIN_____


CITY           SKY/WX    TMP DP  RH WIND       PRES   REMARKS
BURTON ISLAND*   N/A     66  59  77 S12         N/A
COLCHESTER RF*   N/A     63  57  82 S20         N/A
DIAMOND ISL*     N/A     68  57  68 SW2         N/A

$$

NYZ007-026>031-035-052-083-087-271300-
_____NORTHERN NEW YORK_____


CITY           SKY/WX    TMP DP  RH WIND       PRES   REMARKS
PLATTSBURGH    CLOUDY    68  59  73 CALM      29.98R
6HR MIN TEMP:  57; 6HR MAX TEMP:  68;

SARANAC LAKE   CLOUDY    68  57  68 SW6       30.03R
6HR MIN TEMP:  50; 6HR MAX TEMP:  68;

MASSENA        CLOUDY    65  55  70 CALM      29.97R
6HR MIN TEMP:  55; 6HR MAX TEMP:  65;

OGDENSBURG*    SUNNY     72  63  73 SW9       29.97S
STARK FALLS*     N/A     32 N/A N/A SE6         N/A  WCI  26
WATERTOWN      MOSUNNY   73  62  68 SW8       29.98R
6HR MIN TEMP:  56; 6HR MAX TEMP:  73;

ALBANY         PTSUNNY   73  54  51 S8        30.03R
6HR MIN TEMP:  71; 6HR MAX TEMP:  74;

GLENS FALLS    CLOUDY    74  58  57 S7        30.02R
6HR MIN TEMP:  61; 6HR MAX TEMP:  74;


$$
NHZ002-005-011-271300-
_____NEW HAMPSHIRE_____


CITY           SKY/WX    TMP DP  RH WIND       PRES   REMARKS
LEBANON        PTSUNNY   65  56  72 E3        30.08R
6HR MIN TEMP:  64; 6HR MAX TEMP:  67;

MT WASHINGTON  CLOUDY    50  48  93 SW36        N/A
6HR MIN TEMP:  44; 6HR MAX TEMP:  51; 6HR PCP:  0.02;

PLYMOUTH       FAIR      62  53  70 SE6       30.13S
6HR MIN TEMP:  59; 6HR MAX TEMP:  62;

WHITEFIELD     CLOUDY    65  55  70 CALM      30.07F
6HR MIN TEMP:  61; 6HR MAX TEMP:  70; 6HR PCP:  0.03;


$$

_____REGIONAL QUEBEC LOCATIONS_____


CITY           SKY/WX    TMP DP  RH WIND       PRES   REMARKS
MONTREAL       CLOUDY    61  52  72 N7        29.97R
QUEBEC CITY    CLOUDY    55  52  88 E10G17    30.03R
SHERBROOKE     MOSUNNY   66  57  72 SE5       30.03R

_____REGIONAL ONTARIO LOCATIONS_____


CITY           SKY/WX    TMP DP  RH WIND       PRES   REMARKS
OTTAWA         CLOUDY    64  54  68 NE5       29.95R

______KEY______
VSB  - VISIBILITY IN MILES
WCI  - WIND CHILL INDEX
HX   - HEAT INDEX
$$
NNNN




USA.gov is the U.S. government's official web portal to all federal, state and local government web resources and services.